Location: *
(32.8667°N, 13.1833°E)
Time: 00:21:18
(UTC+00:00)

Cosmos 2333 Rocket - Pass Details

Date: 18 July 2019
Orbit: 842 x 860 km, 70.8° (Epoch: 19 August)

Event Time Altitude Azimuth Distance (km) Brightness Sun altitude
Exits shadow 21:39:39 57° 303° (WNW) 1,001 2.7 -31.7°
Drops below altitude 10° 21:45:01 10° 12° (NNE) 2,478 5.2 -32.2°
Sets 21:47:31 0° 16° (NNE) 3,414 6.0 -32.4°
